Orlando International, FL

4:52 AM EDT on October 17, 2017 (GMT -0400)
Orlando International

Weather History for KMCO - October, 2010

Change the Weather History Date:

Saturday, October 16, 2010

  Actual Average Record
Temperature  
Mean Temperature 70 °F 76 °F  
Max Temperature 84 °F 85 °F 95 °F (1925)
Min Temperature 56 °F 67 °F 50 °F (1955)
Degree Days  
Heating Degree Days 0 0  
Month to date heating degree days 0 0  
Since 1 July heating degree days 0 0  
Cooling Degree Days 5 11  
Month to date cooling degree days 136 198  
Year to date cooling degree days 3081 3074  
Growing Degree Days 20 (Base 50)    
Moisture  
Dew Point 51 °F    
Average Humidity 59    
Maximum Humidity 93    
Minimum Humidity 24    
Precipitation  
Precipitation 0.00 in 0.11 in 3.48 in (1956)
Month to date precipitation 0.00 2.03  
Year to date precipitation 43.26 44.70  
Sea Level Pressure  
Sea Level Pressure 30.06 in    
Wind  
Wind Speed 6 mph (North)    
Max Wind Speed 14 mph    
Max Gust Speed 21 mph    
Visibility 10 miles    
Events      
T = Trace of Precipitation, MM = Missing Value Source: NWS Daily Summary

Daily Weather History Graph

Daily Weather History Graph

Search for Another Location

Airport or City:

Trip Planner

Search our weather history database for the weather conditions in past years. The results will help you decide how hot, cold, wet, or windy it might be!

Date:

Astronomy

Oct. 16, 2010 Rise Set
Actual Time 7:26 AM EDT 6:54 PM EDT
Civil Twilight 7:02 AM EDT 7:18 PM EDT
Nautical Twilight 6:35 AM EDT 7:45 PM EDT
Astronomical Twilight 6:08 AM EDT 8:13 PM EDT
Moon 3:19 PM EDT (10/16) 1:49 AM EDT (10/16)
Length of Visible Light 12h 15m
Length of Day
11h 28m
Waxing Gibbous, 67% of the Moon is Illuminated
Oct 16
Waxing Gibbous
Oct 22
Full
Oct 30
Last Quarter
Nov 6
New
Nov 13
First Quarter

Hourly Weather History & Observations

Time (EDT) Temp. Dew Point Humidity Pressure Visibility Wind Dir Wind Speed Gust Speed Precip Events Conditions
12:53 AM 62.1 °F 53.1 °F 72% 30.04 in 10.0 mi NW 4.6 mph - N/A   Clear
1:53 AM 61.0 °F 54.0 °F 78% 30.04 in 10.0 mi NW 6.9 mph - N/A   Clear
2:53 AM 61.0 °F 52.0 °F 72% 30.03 in 10.0 mi NW 4.6 mph - N/A   Clear
3:53 AM 57.9 °F 50.0 °F 75% 30.02 in 10.0 mi Calm Calm - N/A   Clear
4:53 AM 59.0 °F 51.1 °F 75% 30.02 in 10.0 mi Calm Calm - N/A   Clear
5:53 AM 57.0 °F 52.0 °F 83% 30.03 in 10.0 mi Calm Calm - N/A   Clear
6:53 AM 57.0 °F 54.0 °F 89% 30.04 in 10.0 mi Calm Calm - N/A   Clear
7:53 AM 57.9 °F 55.0 °F 90% 30.06 in 10.0 mi Calm Calm - N/A   Clear
8:53 AM 66.9 °F 59.0 °F 76% 30.07 in 10.0 mi NW 6.9 mph - N/A   Clear
9:53 AM 71.1 °F 53.1 °F 53% 30.08 in 10.0 mi NNW 10.4 mph - N/A   Clear
10:53 AM 75.9 °F 51.1 °F 42% 30.09 in 10.0 mi NNW 6.9 mph - N/A   Clear
11:53 AM 81.0 °F 46.9 °F 30% 30.09 in 10.0 mi North 10.4 mph - N/A   Clear
12:53 PM 81.0 °F 43.0 °F 26% 30.08 in 10.0 mi NNW 8.1 mph - N/A   Clear
1:53 PM 82.9 °F 44.1 °F 25% 30.06 in 10.0 mi NNW 12.7 mph - N/A   Clear
2:53 PM 84.0 °F 45.0 °F 25% 30.04 in 10.0 mi NNW 8.1 mph - N/A   Clear
3:53 PM 82.9 °F 43.0 °F 24% 30.04 in 10.0 mi NNE 5.8 mph - N/A   Clear
4:53 PM 82.9 °F 44.1 °F 25% 30.03 in 10.0 mi NE 8.1 mph - N/A   Clear
5:53 PM 81.0 °F 46.9 °F 30% 30.04 in 10.0 mi ENE 8.1 mph - N/A   Clear
6:53 PM 75.0 °F 48.0 °F 38% 30.06 in 10.0 mi ENE 8.1 mph - N/A   Clear
7:53 PM 71.1 °F 52.0 °F 51% 30.08 in 10.0 mi East 5.8 mph - N/A   Clear
8:53 PM 70.0 °F 55.9 °F 61% 30.09 in 10.0 mi ENE 4.6 mph - N/A   Clear
9:53 PM 68.0 °F 59.0 °F 73% 30.11 in 10.0 mi NNE 5.8 mph - N/A   Clear
10:53 PM 69.1 °F 60.1 °F 73% 30.12 in 10.0 mi NNE 9.2 mph - N/A   Clear
11:53 PM 66.9 °F 60.1 °F 79% 30.12 in 10.0 mi North 6.9 mph - N/A   Partly Cloudy